| time (UTC) | temp F | wind direction | speed MPH | gust MPH | rain 1hr in | rain 24hr in | rain mn in | humidity % | barometer mb |
| 20260507202004 | 73 | 327 | 3.0 | 8.0 | 0.00 | 0.00 | 0.00 | 29 | 1008.5 |
| 20260507200503 | 73 | 270 | 2.0 | 13.0 | 0.00 | 0.00 | 0.00 | 29 | 1008.5 |
| 20260507200008 | 73 | 273 | 2.0 | 11.0 | 0.00 | 0.00 | 0.00 | 27 | 1008.6 |
| 20260507195003 | 73 | 331 | 2.0 | 7.0 | 0.00 | 0.00 | 0.00 | 31 | 1008.4 |
| 20260507194508 | 74 | 316 | 2.0 | 10.0 | 0.00 | 0.00 | 0.00 | 31 | 1008.5 |
| 20260507193503 | 74 | 247 | 1.0 | 7.0 | 0.00 | 0.00 | 0.00 | 35 | 1008.4 |
| 20260507193008 | 74 | 266 | 2.0 | 7.0 | 0.00 | 0.00 | 0.00 | 35 | 1008.5 |
| 20260507191508 | 73 | 290 | 2.0 | 8.0 | 0.00 | 0.00 | 0.00 | 37 | 1008.6 |
| 20260507185503 | 74 | 261 | 1.0 | 5.0 | 0.00 | 0.00 | 0.00 | 37 | 1008.4 |
| 20260507185004 | 73 | 268 | 2.0 | 7.0 | 0.00 | 0.00 | 0.00 | 39 | 1008.6 |
| 20260507183504 | 72 | 223 | 2.0 | 6.0 | 0.00 | 0.00 | 0.00 | 38 | 1008.7 |
| 20260507183008 | 71 | 246 | 2.0 | 6.0 | 0.00 | 0.00 | 0.00 | 40 | 1008.8 |
| 20260507182503 | 71 | 260 | 2.0 | 6.0 | 0.00 | 0.00 | 0.00 | 39 | 1008.9 |
| 20260507182003 | 70 | 254 | 2.0 | 6.0 | 0.00 | 0.00 | 0.00 | 40 | 1008.9 |
| 20260507181508 | 70 | 258 | 2.0 | 6.0 | 0.00 | 0.00 | 0.00 | 40 | 1009.1 |
| 20260507180503 | 70 | 236 | 2.0 | 7.0 | 0.00 | 0.00 | 0.00 | 38 | 1009.1 |
| 20260507180008 | 70 | 251 | 2.0 | 8.0 | 0.00 | 0.00 | 0.00 | 39 | 1009.1 |
| 20260507175503 | 71 | 241 | 2.0 | 8.0 | 0.00 | 0.00 | 0.00 | 42 | 1009.1 |
| 20260507175004 | 70 | 253 | 2.0 | 7.0 | 0.00 | 0.00 | 0.00 | 43 | 1009.2 |
| 20260507174508 | 69 | 257 | 2.0 | 6.0 | 0.00 | 0.00 | 0.00 | 42 | 1009.3 |
| 20260507174003 | 69 | 237 | 2.0 | 5.0 | 0.00 | 0.00 | 0.00 | 39 | 1009.4 |
| 20260507173504 | 69 | 258 | 2.0 | 6.0 | 0.00 | 0.00 | 0.00 | 40 | 1009.5 |
| 20260507173007 | 69 | 258 | 2.0 | 6.0 | 0.00 | 0.00 | 0.00 | 40 | 1009.6 |
| 20260507172504 | 69 | 245 | 2.0 | 6.0 | 0.00 | 0.00 | 0.00 | 41 | 1009.5 |
| 20260507172003 | 68 | 241 | 2.0 | 5.0 | 0.00 | 0.00 | 0.00 | 40 | 1009.7 |
| 20260507171508 | 68 | 233 | 1.0 | 4.0 | 0.00 | 0.00 | 0.00 | 42 | 1009.7 |
| 20260507170504 | 67 | 246 | 1.0 | 5.0 | 0.00 | 0.00 | 0.00 | 41 | 1009.8 |
| 20260507165503 | 66 | 244 | 1.0 | 4.0 | 0.00 | 0.00 | 0.00 | 43 | 1010.0 |
| 20260507164003 | 66 | 231 | 2.0 | 4.0 | 0.00 | 0.00 | 0.00 | 45 | 1010.2 |
| 20260507163503 | 66 | 213 | 2.0 | 5.0 | 0.00 | 0.00 | 0.00 | 52 | 1010.2 |
| 20260507163007 | 64 | 213 | 2.0 | 6.0 | 0.00 | 0.00 | 0.00 | 48 | 1010.2 |
| 20260507162503 | 64 | 203 | 3.0 | 7.0 | 0.00 | 0.00 | 0.00 | 47 | 1010.2 |
| 20260507162003 | 64 | 194 | 3.0 | 8.0 | 0.00 | 0.00 | 0.00 | 50 | 1010.3 |
| 20260507161509 | 63 | 205 | 2.0 | 8.0 | 0.00 | 0.00 | 0.00 | 51 | 1010.3 |
| 20260507161004 | 63 | 223 | 2.0 | 4.0 | 0.00 | 0.00 | 0.00 | 51 | 1010.4 |
| 20260507160008 | 62 | 203 | 2.0 | 8.0 | 0.00 | 0.00 | 0.00 | 53 | 1010.5 |
| 20260507155504 | 62 | 216 | 2.0 | 5.0 | 0.00 | 0.00 | 0.00 | 53 | 1010.6 |
| 20260507155004 | 61 | 236 | 2.0 | 5.0 | 0.00 | 0.00 | 0.00 | 55 | 1010.6 |
| 20260507154507 | 61 | 230 | 2.0 | 5.0 | 0.00 | 0.00 | 0.00 | 54 | 1010.7 |
| 20260507153504 | 60 | 225 | 2.0 | 6.0 | 0.00 | 0.00 | 0.00 | 56 | 1010.8 |
| 20260507152503 | 59 | 213 | 2.0 | 6.0 | 0.00 | 0.00 | 0.00 | 60 | 1010.8 |
| 20260507152003 | 59 | 206 | 2.0 | 6.0 | 0.00 | 0.00 | 0.00 | 61 | 1011.0 |
| 20260507151508 | 59 | 214 | 2.0 | 5.0 | 0.00 | 0.00 | 0.00 | 62 | 1011.0 |
| 20260507151003 | 58 | 223 | 1.0 | 4.0 | 0.00 | 0.00 | 0.00 | 62 | 1011.1 |
| 20260507150008 | 57 | 235 | 2.0 | 4.0 | 0.00 | 0.00 | 0.00 | 63 | 1011.1 |
| 20260507145503 | 56 | 238 | 2.0 | 5.0 | 0.00 | 0.00 | 0.00 | 65 | 1011.2 |
| 20260507145003 | 56 | 240 | 2.0 | 5.0 | 0.00 | 0.00 | 0.00 | 65 | 1011.2 |
| 20260507144508 | 56 | 237 | 2.0 | 5.0 | 0.00 | 0.00 | 0.00 | 65 | 1011.3 |
| 20260507144004 | 56 | 235 | 1.0 | 4.0 | 0.00 | 0.00 | 0.00 | 66 | 1011.4 |
| 20260507143503 | 55 | 237 | 1.0 | 4.0 | 0.00 | 0.00 | 0.00 | 67 | 1011.4 |
| 20260507143008 | 55 | 232 | 2.0 | 4.0 | 0.00 | 0.00 | 0.00 | 67 | 1011.4 |
| 20260507142504 | 55 | 231 | 1.0 | 3.0 | 0.00 | 0.00 | 0.00 | 68 | 1011.5 |
| 20260507141508 | 54 | 245 | 1.0 | 3.0 | 0.00 | 0.00 | 0.00 | 71 | 1011.5 |
| 20260507140009 | 52 | 243 | 1.0 | 4.0 | 0.00 | 0.00 | 0.00 | 72 | 1011.6 |
| 20260507135503 | 52 | 247 | 2.0 | 4.0 | 0.00 | 0.00 | 0.00 | 72 | 1011.6 |
| 20260507135005 | 52 | 236 | 2.0 | 5.0 | 0.00 | 0.00 | 0.00 | 74 | 1011.6 |
| 20260507134003 | 51 | 240 | 1.0 | 4.0 | 0.00 | 0.00 | 0.00 | 74 | 1011.6 |
| 20260507133008 | 50 | 241 | 2.0 | 5.0 | 0.00 | 0.00 | 0.00 | 75 | 1011.6 |
| 20260507132503 | 50 | 237 | 1.0 | 4.0 | 0.00 | 0.00 | 0.00 | 76 | 1011.7 |
| 20260507131508 | 49 | 239 | 2.0 | 5.0 | 0.00 | 0.00 | 0.00 | 77 | 1011.7 |
| 20260507131005 | 49 | 239 | 2.0 | 4.0 | 0.00 | 0.00 | 0.00 | 78 | 1011.7 |
| 20260507130503 | 48 | 234 | 2.0 | 5.0 | 0.00 | 0.00 | 0.00 | 78 | 1011.8 |
| 20260507130009 | 48 | 232 | 2.0 | 5.0 | 0.00 | 0.00 | 0.00 | 78 | 1012.0 |
| 20260507125503 | 48 | 237 | 1.0 | 3.0 | 0.00 | 0.00 | 0.00 | 79 | 1012.1 |
| 20260507125003 | 47 | 237 | 2.0 | 3.0 | 0.00 | 0.00 | 0.00 | 80 | 1012.1 |
| 20260507124509 | 47 | 239 | 2.0 | 5.0 | 0.00 | 0.00 | 0.00 | 80 | 1012.0 |
| 20260507123504 | 46 | 243 | 2.0 | 4.0 | 0.00 | 0.00 | 0.00 | 80 | 1012.0 |
| 20260507123009 | 46 | 245 | 1.0 | 3.0 | 0.00 | 0.00 | 0.00 | 81 | 1012.0 |
| 20260507122503 | 46 | 243 | 1.0 | 3.0 | 0.00 | 0.00 | 0.00 | 81 | 1012.0 |
| 20260507122003 | 46 | 240 | 1.0 | 3.0 | 0.00 | 0.00 | 0.00 | 81 | 1012.0 |
| 20260507121508 | 46 | 239 | 1.0 | 4.0 | 0.00 | 0.00 | 0.00 | 82 | 1012.0 |
| 20260507121004 | 45 | 242 | 1.0 | 4.0 | 0.00 | 0.00 | 0.00 | 82 | 1012.0 |
| 20260507120504 | 45 | 237 | 1.0 | 3.0 | 0.00 | 0.00 | 0.00 | 82 | 1012.0 |
| 20260507120008 | 45 | 231 | 1.0 | 3.0 | 0.00 | 0.00 | 0.00 | 82 | 1012.0 |
| 20260507115504 | 45 | 242 | 1.0 | 2.0 | 0.00 | 0.00 | 0.00 | 82 | 1012.0 |
| 20260507115004 | 45 | 249 | 1.0 | 2.0 | 0.00 | 0.00 | 0.00 | 81 | 1012.0 |
| 20260507113503 | 45 | 241 | 1.0 | 2.0 | 0.00 | 0.00 | 0.00 | 81 | 1012.1 |
| 20260507113008 | 45 | 239 | 1.0 | 2.0 | 0.00 | 0.00 | 0.00 | 81 | 1012.0 |
| 20260507112504 | 45 | 234 | 1.0 | 2.0 | 0.00 | 0.00 | 0.00 | 81 | 1012.0 |
| 20260507112004 | 45 | 234 | 1.0 | 2.0 | 0.00 | 0.00 | 0.00 | 80 | 1012.0 |
| 20260507111003 | 45 | 232 | 0.0 | 1.0 | 0.00 | 0.00 | 0.00 | 80 | 1012.0 |
| 20260507110503 | 46 | 237 | 0.0 | 2.0 | 0.00 | 0.00 | 0.00 | 80 | 1012.0 |
| 20260507110008 | 46 | 240 | 0.0 | 2.0 | 0.00 | 0.00 | 0.00 | 80 | 1012.1 |
| 20260507105003 | 46 | 235 | 1.0 | 2.0 | 0.00 | 0.00 | 0.00 | 80 | 1012.0 |
| 20260507104508 | 46 | 235 | 1.0 | 2.0 | 0.00 | 0.00 | 0.00 | 79 | 1011.9 |
| 20260507104003 | 46 | 237 | 1.0 | 2.0 | 0.00 | 0.00 | 0.00 | 79 | 1011.9 |
| 20260507103503 | 46 | 238 | 1.0 | 2.0 | 0.00 | 0.00 | 0.00 | 79 | 1012.0 |
| 20260507103009 | 46 | 242 | 1.0 | 2.0 | 0.00 | 0.00 | 0.00 | 79 | 1011.9 |
| 20260507102003 | 46 | 250 | 0.0 | 2.0 | 0.00 | 0.00 | 0.00 | 79 | 1012.0 |
| 20260507101509 | 46 | 240 | 0.0 | 2.0 | 0.00 | 0.00 | 0.00 | 79 | 1012.0 |
| 20260507101004 | 46 | 246 | 1.0 | 2.0 | 0.00 | 0.00 | 0.00 | 78 | 1012.0 |
| 20260507100504 | 46 | 247 | 1.0 | 2.0 | 0.00 | 0.00 | 0.00 | 78 | 1012.0 |
| 20260507095003 | 46 | 229 | 1.0 | 2.0 | 0.00 | 0.00 | 0.00 | 78 | 1012.2 |
| 20260507094508 | 46 | 231 | 1.0 | 2.0 | 0.00 | 0.00 | 0.00 | 78 | 1012.2 |
| 20260507094005 | 46 | 236 | 0.0 | 2.0 | 0.00 | 0.00 | 0.00 | 78 | 1012.3 |
| 20260507092503 | 46 | 238 | 0.0 | 1.0 | 0.00 | 0.00 | 0.00 | 77 | 1012.3 |
| 20260507092004 | 46 | 239 | 0.0 | 1.0 | 0.00 | 0.00 | 0.00 | 77 | 1012.4 |
| 20260507091508 | 46 | 247 | 0.0 | 1.0 | 0.00 | 0.00 | 0.00 | 77 | 1012.4 |
| 20260507090503 | 46 | 238 | 0.0 | 1.0 | 0.00 | 0.00 | 0.00 | 76 | 1012.5 |
| 20260507090008 | 46 | 249 | 0.0 | 1.0 | 0.00 | 0.00 | 0.00 | 76 | 1012.6 |
| 20260507084508 | 46 | 0 | 0.0 | 0.0 | 0.00 | 0.00 | 0.00 | 75 | 1012.9 |
| 20260507084003 | 46 | 0 | 0.0 | 0.0 | 0.00 | 0.00 | 0.00 | 75 | 1012.9 |
| 20260507082503 | 46 | 257 | 0.0 | 1.0 | 0.00 | 0.00 | 0.00 | 73 | 1013.1 |
| 20260507082003 | 46 | 0 | 0.0 | 0.0 | 0.00 | 0.00 | 0.00 | 73 | 1013.2 |
| 20260507081508 | 46 | 0 | 0.0 | 0.0 | 0.00 | 0.00 | 0.00 | 73 | 1013.2 |
| 20260507081005 | 46 | 0 | 0.0 | 0.0 | 0.00 | 0.00 | 0.00 | 72 | 1013.3 |
| 20260507080503 | 46 | 257 | 0.0 | 1.0 | 0.00 | 0.00 | 0.00 | 72 | 1013.3 |
| 20260507075003 | 45 | 0 | 0.0 | 0.0 | 0.00 | 0.00 | 0.00 | 71 | 1013.5 |
| 20260507074003 | 45 | 0 | 0.0 | 0.0 | 0.00 | 0.00 | 0.00 | 72 | 1013.6 |
| 20260507073504 | 44 | 0 | 0.0 | 0.0 | 0.00 | 0.00 | 0.00 | 71 | 1013.6 |
| 20260507073008 | 44 | 0 | 0.0 | 0.0 | 0.00 | 0.00 | 0.00 | 72 | 1013.6 |
| 20260507072504 | 44 | 0 | 0.0 | 0.0 | 0.00 | 0.00 | 0.00 | 73 | 1013.7 |
| 20260507072003 | 43 | 0 | 0.0 | 0.0 | 0.00 | 0.00 | 0.00 | 72 | 1013.8 |
| 20260507071508 | 44 | 0 | 0.0 | 0.0 | 0.00 | 0.00 | 0.00 | 72 | 1013.9 |
| 20260507071003 | 44 | 0 | 0.0 | 0.0 | 0.00 | 0.00 | 0.00 | 72 | 1013.9 |
| 20260507070504 | 43 | 0 | 0.0 | 0.0 | 0.00 | 0.00 | 0.00 | 72 | 1013.9 |
| 20260507070011 | 43 | 0 | 0.0 | 0.0 | 0.00 | 0.00 | 0.00 | 73 | 1014.0 |
| 20260507065504 | 42 | 0 | 0.0 | 0.0 | 0.00 | 0.00 | 0.00 | 73 | 1014.1 |
| 20260507065004 | 42 | 0 | 0.0 | 0.0 | 0.00 | 0.00 | 0.00 | 74 | 1014.2 |
| 20260507064508 | 42 | 0 | 0.0 | 0.0 | 0.00 | 0.00 | 0.00 | 74 | 1014.3 |
| 20260507064003 | 42 | 0 | 0.0 | 0.0 | 0.00 | 0.00 | 0.00 | 75 | 1014.4 |
| 20260507063504 | 42 | 0 | 0.0 | 0.0 | 0.00 | 0.00 | 0.00 | 76 | 1014.4 |
| 20260507062504 | 42 | 0 | 0.0 | 0.0 | 0.00 | 0.00 | 0.00 | 76 | 1014.4 |
| 20260507062003 | 42 | 0 | 0.0 | 0.0 | 0.00 | 0.00 | 0.00 | 74 | 1014.4 |
| 20260507061508 | 42 | 0 | 0.0 | 0.0 | 0.00 | 0.00 | 0.00 | 74 | 1014.5 |
| 20260507061003 | 42 | 0 | 0.0 | 0.0 | 0.00 | 0.00 | 0.00 | 74 | 1014.4 |
| 20260507060504 | 42 | 0 | 0.0 | 0.0 | 0.00 | 0.00 | 0.00 | 74 | 1014.6 |
| 20260507060009 | 42 | 0 | 0.0 | 0.0 | 0.00 | 0.00 | 0.00 | 74 | 1014.6 |
| 20260507055503 | 42 | 0 | 0.0 | 0.0 | 0.00 | 0.00 | 0.00 | 74 | 1014.6 |
| 20260507055003 | 43 | 0 | 0.0 | 0.0 | 0.00 | 0.00 | 0.00 | 73 | 1014.6 |
| 20260507054508 | 43 | 0 | 0.0 | 0.0 | 0.00 | 0.00 | 0.00 | 74 | 1014.6 |
| 20260507054003 | 43 | 0 | 0.0 | 0.0 | 0.00 | 0.00 | 0.00 | 75 | 1014.7 |
| 20260507053503 | 43 | 0 | 0.0 | 0.0 | 0.00 | 0.00 | 0.00 | 75 | 1014.7 |
| 20260507053009 | 43 | 0 | 0.0 | 0.0 | 0.00 | 0.00 | 0.00 | 74 | 1014.7 |
| 20260507052504 | 43 | 0 | 0.0 | 0.0 | 0.00 | 0.00 | 0.00 | 74 | 1014.7 |
| 20260507052003 | 43 | 0 | 0.0 | 0.0 | 0.00 | 0.00 | 0.00 | 73 | 1014.6 |
| 20260507050504 | 43 | 0 | 0.0 | 0.0 | 0.00 | 0.00 | 0.00 | 74 | 1014.8 |
| 20260507050009 | 42 | 0 | 0.0 | 0.0 | 0.00 | 0.00 | 0.00 | 73 | 1014.8 |
| 20260507045503 | 42 | 0 | 0.0 | 0.0 | 0.00 | 0.00 | 0.00 | 73 | 1014.8 |
| 20260507044508 | 42 | 0 | 0.0 | 0.0 | 0.00 | 0.00 | 0.00 | 70 | 1014.7 |
| 20260507044003 | 42 | 0 | 0.0 | 0.0 | 0.00 | 0.00 | 0.00 | 70 | 1014.7 |
| 20260507043504 | 42 | 0 | 0.0 | 0.0 | 0.00 | 0.00 | 0.00 | 71 | 1014.8 |
| 20260507043009 | 42 | 0 | 0.0 | 0.0 | 0.00 | 0.00 | 0.00 | 70 | 1014.9 |
| 20260507042503 | 43 | 0 | 0.0 | 0.0 | 0.00 | 0.00 | 0.00 | 69 | 1015.0 |
| 20260507042003 | 43 | 0 | 0.0 | 0.0 | 0.00 | 0.00 | 0.00 | 68 | 1015.0 |
| 20260507041508 | 43 | 0 | 0.0 | 0.0 | 0.00 | 0.00 | 0.00 | 69 | 1015.0 |
| 20260507041004 | 44 | 0 | 0.0 | 0.0 | 0.00 | 0.00 | 0.00 | 69 | 1015.1 |
| 20260507040503 | 44 | 0 | 0.0 | 0.0 | 0.00 | 0.00 | 0.00 | 68 | 1015.1 |
| 20260507040008 | 44 | 0 | 0.0 | 0.0 | 0.00 | 0.00 | 0.00 | 67 | 1015.2 |
| 20260507035503 | 44 | 0 | 0.0 | 0.0 | 0.00 | 0.00 | 0.00 | 67 | 1015.2 |
| 20260507035005 | 44 | 0 | 0.0 | 0.0 | 0.00 | 0.00 | 0.00 | 66 | 1015.2 |
| 20260507034003 | 44 | 0 | 0.0 | 0.0 | 0.00 | 0.00 | 0.00 | 65 | 1015.3 |
| 20260507033504 | 44 | 0 | 0.0 | 0.0 | 0.00 | 0.00 | 0.00 | 65 | 1015.3 |
| 20260507033009 | 44 | 0 | 0.0 | 0.0 | 0.00 | 0.00 | 0.00 | 65 | 1015.3 |
| 20260507032003 | 45 | 0 | 0.0 | 0.0 | 0.00 | 0.00 | 0.00 | 62 | 1015.4 |
| 20260507031508 | 45 | 0 | 0.0 | 0.0 | 0.00 | 0.00 | 0.00 | 60 | 1015.3 |
| 20260507031003 | 46 | 0 | 0.0 | 0.0 | 0.00 | 0.00 | 0.00 | 60 | 1015.3 |
| 20260507030008 | 46 | 0 | 0.0 | 0.0 | 0.00 | 0.00 | 0.00 | 59 | 1015.3 |
| 20260507025503 | 47 | 0 | 0.0 | 0.0 | 0.00 | 0.00 | 0.00 | 57 | 1015.3 |
| 20260507025004 | 47 | 0 | 0.0 | 0.0 | 0.00 | 0.00 | 0.00 | 58 | 1015.3 |
| 20260507024508 | 48 | 0 | 0.0 | 0.0 | 0.00 | 0.00 | 0.00 | 58 | 1015.3 |
| 20260507024003 | 48 | 0 | 0.0 | 0.0 | 0.00 | 0.00 | 0.00 | 57 | 1015.3 |
| 20260507023503 | 48 | 0 | 0.0 | 0.0 | 0.00 | 0.00 | 0.00 | 55 | 1015.2 |
| 20260507023008 | 48 | 0 | 0.0 | 0.0 | 0.00 | 0.00 | 0.00 | 55 | 1015.1 |
| 20260507022504 | 49 | 0 | 0.0 | 0.0 | 0.00 | 0.00 | 0.00 | 54 | 1015.1 |
| 20260507022003 | 49 | 0 | 0.0 | 0.0 | 0.00 | 0.00 | 0.00 | 53 | 1015.1 |
| 20260507021003 | 50 | 0 | 0.0 | 0.0 | 0.00 | 0.00 | 0.00 | 51 | 1015.0 |
| 20260507020503 | 50 | 0 | 0.0 | 0.0 | 0.00 | 0.00 | 0.00 | 50 | 1015.0 |
| 20260507020009 | 51 | 0 | 0.0 | 0.0 | 0.00 | 0.00 | 0.00 | 49 | 1015.0 |
| 20260507015503 | 51 | 0 | 0.0 | 0.0 | 0.00 | 0.00 | 0.00 | 48 | 1015.0 |
| 20260507015004 | 52 | 0 | 0.0 | 0.0 | 0.00 | 0.00 | 0.00 | 47 | 1015.0 |
| 20260507014508 | 52 | 0 | 0.0 | 0.0 | 0.00 | 0.00 | 0.00 | 45 | 1014.9 |
| 20260507012503 | 55 | 0 | 0.0 | 0.0 | 0.00 | 0.00 | 0.00 | 40 | 1014.9 |
| 20260507012004 | 56 | 0 | 0.0 | 0.0 | 0.00 | 0.00 | 0.00 | 40 | 1015.0 |
| 20260507011003 | 57 | 260 | 0.0 | 1.0 | 0.00 | 0.00 | 0.00 | 36 | 1015.0 |
| 20260507010503 | 58 | 260 | 0.0 | 1.0 | 0.00 | 0.00 | 0.00 | 36 | 1014.9 |
| 20260507005003 | 60 | 260 | 0.0 | 2.0 | 0.00 | 0.00 | 0.00 | 35 | 1015.0 |
| 20260507004003 | 60 | 283 | 0.0 | 3.0 | 0.00 | 0.00 | 0.00 | 32 | 1015.0 |
| 20260507003503 | 60 | 303 | 0.0 | 3.0 | 0.00 | 0.00 | 0.00 | 33 | 1015.0 |
| 20260507003009 | 61 | 330 | 0.0 | 3.0 | 0.00 | 0.00 | 0.00 | 31 | 1015.1 |
| 20260507002503 | 60 | 320 | 1.0 | 3.0 | 0.00 | 0.00 | 0.00 | 31 | 1015.2 |
| 20260507002003 | 60 | 310 | 1.0 | 4.0 | 0.00 | 0.00 | 0.00 | 32 | 1015.2 |
| 20260507001509 | 60 | 298 | 1.0 | 4.0 | 0.00 | 0.00 | 0.00 | 32 | 1015.2 |
| 20260507001004 | 60 | 295 | 1.0 | 3.0 | 0.00 | 0.00 | 0.00 | 31 | 1015.2 |
| 20260507000505 | 60 | 336 | 1.0 | 4.0 | 0.00 | 0.00 | 0.00 | 31 | 1015.2 |
| 20260507000009 | 60 | 339 | 1.0 | 4.0 | 0.00 | 0.00 | 0.00 | 30 | 1015.3 |
| 20260506235003 | 61 | 333 | 2.0 | 5.0 | 0.00 | 0.00 | 0.00 | 30 | 1015.4 |
| 20260506234003 | 61 | 339 | 2.0 | 7.0 | 0.00 | 0.00 | 0.00 | 30 | 1015.5 |
| 20260506233503 | 61 | 341 | 2.0 | 6.0 | 0.00 | 0.00 | 0.00 | 32 | 1015.6 |
| 20260506232504 | 61 | 311 | 2.0 | 7.0 | 0.00 | 0.00 | 0.00 | 31 | 1015.5 |
| 20260506231508 | 61 | 270 | 1.0 | 3.0 | 0.00 | 0.00 | 0.00 | 34 | 1015.5 |
| 20260506231003 | 61 | 339 | 1.0 | 4.0 | 0.00 | 0.00 | 0.00 | 33 | 1015.6 |
| 20260506230504 | 61 | 315 | 2.0 | 8.0 | 0.00 | 0.00 | 0.00 | 31 | 1015.7 |
| 20260506230008 | 61 | 306 | 2.0 | 8.0 | 0.00 | 0.00 | 0.00 | 30 | 1015.7 |
| 20260506225504 | 61 | 310 | 1.0 | 7.0 | 0.00 | 0.00 | 0.00 | 31 | 1015.7 |
| 20260506225003 | 61 | 18 | 0.0 | 5.0 | 0.00 | 0.00 | 0.00 | 33 | 1015.7 |
| 20260506224508 | 60 | 332 | 2.0 | 7.0 | 0.00 | 0.00 | 0.00 | 33 | 1015.6 |
| 20260506224003 | 60 | 336 | 2.0 | 8.0 | 0.00 | 0.00 | 0.00 | 32 | 1015.7 |
| 20260506223503 | 60 | 341 | 1.0 | 8.0 | 0.00 | 0.00 | 0.00 | 32 | 1015.9 |
| 20260506223009 | 60 | 341 | 1.0 | 5.0 | 0.00 | 0.00 | 0.00 | 32 | 1015.9 |
| 20260506222503 | 60 | 319 | 3.0 | 9.0 | 0.00 | 0.00 | 0.00 | 32 | 1015.9 |
| 20260506222003 | 59 | 328 | 4.0 | 9.0 | 0.00 | 0.00 | 0.00 | 32 | 1015.9 |
| 20260506221508 | 60 | 352 | 2.0 | 9.0 | 0.00 | 0.00 | 0.00 | 31 | 1016.1 |
| 20260506220505 | 59 | 335 | 1.0 | 6.0 | 0.00 | 0.00 | 0.00 | 33 | 1016.1 |
| 20260506220008 | 59 | 332 | 2.0 | 7.0 | 0.00 | 0.00 | 0.00 | 32 | 1016.1 |
| 20260506215503 | 59 | 344 | 2.0 | 7.0 | 0.00 | 0.00 | 0.00 | 33 | 1016.2 |
| 20260506215003 | 59 | 359 | 2.0 | 6.0 | 0.00 | 0.00 | 0.00 | 34 | 1016.1 |
| 20260506214509 | 59 | 358 | 2.0 | 10.0 | 0.00 | 0.00 | 0.00 | 31 | 1016.2 |
| 20260506213503 | 59 | 319 | 2.0 | 9.0 | 0.00 | 0.00 | 0.00 | 32 | 1016.3 |
| 20260506213008 | 60 | 324 | 3.0 | 11.0 | 0.00 | 0.00 | 0.00 | 31 | 1016.4 |
| 20260506212504 | 60 | 327 | 3.0 | 11.0 | 0.00 | 0.00 | 0.00 | 31 | 1016.3 |
| 20260506212003 | 61 | 326 | 2.0 | 9.0 | 0.00 | 0.00 | 0.00 | 32 | 1016.5 |
| 20260506211004 | 60 | 327 | 1.0 | 6.0 | 0.00 | 0.00 | 0.00 | 31 | 1016.6 |
| 20260506210503 | 60 | 329 | 2.0 | 8.0 | 0.00 | 0.00 | 0.00 | 32 | 1016.6 |
| 20260506210008 | 60 | 339 | 2.0 | 10.0 | 0.00 | 0.00 | 0.00 | 32 | 1016.8 |
| 20260506205505 | 60 | 332 | 2.0 | 10.0 | 0.00 | 0.00 | 0.00 | 33 | 1016.8 |
| 20260506205004 | 59 | 323 | 2.0 | 5.0 | 0.00 | 0.00 | 0.00 | 32 | 1016.9 |
| 20260506204510 | 60 | 303 | 2.0 | 8.0 | 0.00 | 0.00 | 0.00 | 34 | 1016.9 |
| 20260506204003 | 60 | 346 | 2.0 | 8.0 | 0.00 | 0.00 | 0.00 | 31 | 1017.1 |
| 20260506203503 | 60 | 26 | 1.0 | 6.0 | 0.00 | 0.00 | 0.00 | 33 | 1017.0 |
| 20260506203009 | 60 | 350 | 2.0 | 7.0 | 0.00 | 0.00 | 0.00 | 33 | 1017.1 |
| 20260506202504 | 60 | 352 | 3.0 | 12.0 | 0.00 | 0.00 | 0.00 | 31 | 1017.2 |